Location: LDNL
(36.4545°S, 141.6685°E)
Time: 19:36:30
(UTC+11:00)

BlueWalker 3 - Visible Passes

Search period start: 11 November 2024 00:00
Search period end: 21 November 2024 00:00
Orbit: 470 x 481 km, 53.2° (Epoch: 10 November)

Date Brightness Start Highest point End Pass type
(mag) Time Alt. Az. Time Alt. Az. Time Alt. Az.
11 Nov 2.7 03:56:35 47° E 03:56:35 47° E 03:59:30 10° SE visible
11 Nov 3.9 05:31:16 10° WSW 05:33:59 19° SSW 05:36:43 10° SSE visible
12 Nov 3.9 03:28:12 26° ESE 03:28:12 26° ESE 03:30:03 10° ESE visible
12 Nov 3.8 05:02:19 13° WSW 05:04:31 21° SSW 05:07:25 10° SSE visible
13 Nov 4.7 02:59:44 15° ESE 02:59:44 15° ESE 03:00:32 10° ESE visible
13 Nov 3.6 04:33:50 20° WSW 04:35:00 23° SSW 04:38:04 10° SSE visible
14 Nov 3.4 04:05:15 26° SW 04:05:26 26° SW 04:08:39 10° SSE visible
15 Nov 3.6 03:36:35 27° SSW 03:36:35 27° SSW 03:39:12 10° SSE visible
16 Nov 4.1 03:07:49 23° S 03:07:49 23° S 03:09:40 10° SSE visible
17 Nov 4.7 02:38:58 18° SSE 02:38:58 18° SSE 02:40:06 10° SSE visible
18 Nov 5.0 02:10:01 13° SSE 02:10:01 13° SSE 02:10:29 10° SE visible
18 Nov 4.8 03:44:51 10° SSW 03:45:33 10° SSW 03:46:16 10° S visible
19 Nov 4.8 03:15:03 11° SSW 03:15:43 11° SSW 03:17:00 10° S visible
20 Nov 4.8 02:45:54 12° SSW 02:45:54 12° SSW 02:47:31 10° S visible
